www.pogodaiklimat.ru
ПОГОДА в Семиноле
Время
и дата
05:35 06.02
05:55 06.02
06:15 06.02
06:35 06.02
06:55 06.02
07:15 06.02
07:35 06.02
07:55 06.02
08:15 06.02
08:35 06.02
08:55 06.02
09:15 06.02
09:35 06.02
09:55 06.02
10:15 06.02
10:35 06.02
10:55 06.02
11:15 06.02
11:35 06.02
11:55 06.02
12:15 06.02
12:35 06.02
12:55 06.02
13:15 06.02
13:35 06.02
13:55 06.02
14:15 06.02
14:35 06.02
14:55 06.02
15:15 06.02
15:35 06.02
15:55 06.02
16:15 06.02
16:35 06.02
16:55 06.02
17:15 06.02
17:35 06.02
17:55 06.02
18:15 06.02
18:35 06.02
18:55 06.02
19:15 06.02
19:35 06.02
19:55 06.02
20:15 06.02
20:35 06.02
20:55 06.02
21:15 06.02
Ветер
(напр.,м/с)
Видим. Явления Облачность Т
(С)
Тd
(С)
f
(%)
Тe
(С)
Тes
(С)
Комфортность P
(гПа)
Po
(гПа)
Тmin
(С)
Tmax
(С)
R
(мм)
R24
(мм)
S
(см)
Ю 4 16 км ясно +10.0 +8.0 87 +7 +7 977.5
ЮВ 4
{7}
16 км ясно +10.0 +8.0 87 +7 +7 977.5
ЮВ 5 16 км ясно +10.0 +8.0 87 +7 +7 977.2
Ю 3
{7}
16 км ясно +10.0 +8.0 87 +8 +8 977.5
Ю 4
{7}
16 км ясно +10.0 +9.0 93 +7 +7 977.2
Ю 3
{7}
16 км ясно +10.0 +9.0 93 +8 +8 977.2
ЮВ 3
{7}
16 км ясно +10.0 +9.0 93 +8 +8 977.2
Ю 4
{8}
16 км 2/2 270 м +10.0 +9.0 93 +7 +7 976.9
Ю 6 16 км 5/5 240 м +11.0 +9.0 87 +8 +8 976.9
Ю 5
{8}
16 км 5/5 270 м +11.0 +10.0 94 +8 +8 976.9
ЮВ 5
{9}
16 км 5/5 300 м +12.0 +10.0 88 +9 +10 976.9
Ю 5 16 км 8/8 300 м +13.0 +10.0 82 +11 +11 976.9
Ю 5
{9}
16 км 10/10 270 м +13.0 +10.0 82 +11 +11 976.9
Ю 7
{11}
16 км 10/10 240 м +13.0 +10.0 82 +10 +10 976.9
Ю 5
{8}
16 км 10/10 240 м +13.0 +11.0 88 +11 +11 976.9
Ю 7
{12}
16 км 10/10 330 м +14.0 +11.0 82 +12 +12 976.9
Ю 7
{12}
16 км 10/10 360 м +14.0 +11.0 82 +12 +12 976.5
Ю 7
{10}
16 км 10/10 390 м +15.0 +11.0 77 +13 +13 976.5
Ю 6
{10}
16 км 10/10 450 м +16.0 +11.0 72 +15 +15 976.2
Ю 5
{10}
16 км 10/10 510 м +17.0 +11.0 68 +16 +16 976.2
Ю 7 16 км 10/10 600 м +17.0 +11.0 68 +16 +16 975.5
Ю 7
{12}
16 км 8/8 720 м +18.0 +11.0 64 +17 +18 975.2
Ю 7
{11}
16 км 8/8 750 м +18.0 +11.0 64 +17 +18 974.6
Ю 6
{12}
16 км 8/8 780 м +19.0 +11.0 60 +19 +20 973.9
Ю 7
{12}
16 км 5/5 840 м +19.0 +11.0 60 +19 +20 973.6
Ю 6
{13}
16 км 2/2 900 м +20.0 +11.0 56 +21 +24 комфорт 973.3
Ю 7
{12}
16 км 2/2 960 м +20.0 +11.0 56 +21 +23 комфорт 972.9
Ю 6
{10}
16 км 5/5 960 м +20.0 +11.0 56 +21 +23 комфорт 972.9
Ю 6
{10}
16 км 5/5 1050 м +21.0 +10.0 49 +23 +24 комфорт 972.9
Ю 5
{10}
16 км 2/2 1110 м +21.0 +10.0 49 +23 +25 комфорт 972.9
Ю 5
{12}
16 км 2/2 1260 м +20.0 +10.0 53 +21 +23 комфорт 972.9
Ю 5
{9}
16 км 5/5 1290 м +21.0 +10.0 49 +23 +24 комфорт 972.9
Ю 6
{10}
16 км 2/2 1230 м +20.0 +11.0 56 +21 +22 комфорт 972.9
Ю 4
{8}
16 км ясно +20.0 +11.0 56 +22 +23 комфорт 972.9
Ю 4
{10}
16 км ясно +20.0 +11.0 56 +22 +23 комфорт 973.3
Ю 4
{8}
16 км ясно +19.0 +11.0 60 +20 +20 973.6
Ю 5
{8}
16 км 2/2 1200 м +19.0 +11.0 60 +20 +20 973.6
Ю 4
{9}
16 км 2/2 1200 м +19.0 +11.0 60 +20 +20 973.9
Ю 4
{7}
16 км 5/5 1260 м +18.0 +11.0 64 +18 +18 973.9
ЮВ 4
{6}
16 км 8/8 1320 м +18.0 +11.0 64 +18 +18 974.2
нст 3 16 км 5/5 1320 м +17.0 +11.0 68 +17 +17 974.6
Ю 2 16 км 5/5 1290 м +17.0 +11.0 68 +17 +17 974.6
Ю 3 16 км 8/8 1200 м +17.0 +11.0 68 +17 +17 974.9
Ю 3 16 км 8/8 1200 м +16.0 +11.0 72 +16 +16 974.9
ЮВ 3 16 км 8/8 1260 м +16.0 +11.0 72 +16 +16 975.2
ЮВ 2 16 км 5/5 1080 м +16.0 +11.0 72 +16 +16 975.2
ЮВ 3 16 км 5/5 1080 м +15.0 +11.0 77 +14 +14 975.2
ЮВ 3 16 км ясно +15.0 +12.0 82 +14 +14 975.9
Местоположение метеостанции Seminole Municipal Airport: широта 35.2747 долгота -96.6752 высота над уровнем моря 306 м.
В архиве по умолчанию представлена погода в Семиноле за последние 1-2 суток. Обновление информации о фактической погоде в базе происходит ежечасно! Архивные данные за месяц целиком и за предыдущие месяцы Вы можете получить, выбрав интересующий диапазон дат из раскрывающегося списка и нажав кнопку "Ввод!".
Внимание! Архив погоды МЕТАР в базе сайта по станциям, не включенным в климатический монитор, хранится не более 60 дней. Нет смысла пытаться выбрать более раннюю дату.
*Определитесь, кто Вы:
Внимание! Время в таблицах - местное (без учета летнего времени). Для получения всемирного времени необходимо вычесть поправку, которая равна -6 ч.
Смотрите также архив погоды в соседних городах и на ближайших метеорологических станциях:
Партнеры нашего сайта:      
Пояснения к столбцам:
  • Ветер - указаны скорость ветра в м/с - средняя за 10 мин, порывы в срок и между сроками (в фигурных скобках) и направление, откуда дует ветер: С - северный,
  • СВ - северо-восточный, В - восточный, ЮВ - юго-восточный, Ю - южный, ЮЗ - юго-западный, З - западный, СЗ - северо-западный.
  • Видимость - горизонтальная дальность видимости в метрах или километрах. При видимости от 1 до 10 км при отсутствии осадков обычно наблюдается дымка, при ухудшении видимости до 1 км и менее - туман. В сухую погоду видимость может ухудшаться дымом, пылью или мглою.
  • Явления - указаны атмосферные явления, наблюдавшиеся в срок или в последний час перед сроком; фигурными скобками обозначены явления, наблюдавшиеся между сроками (за 1-3 часа до срока); квадратными скобками обозначены град или гололедные отложения с указанием их диаметра в мм.
  • Облачность - указаны через наклонную черту общая и нижняя облачность в баллах и высота нижней границы облаков в метрах; квадратными скобками обозначены формы облаков: Ci - перистые, Cs - перисто-слоистые, Cc - перисто-кучевые, Ac - высококучевые, As - высокослоистые, Sc - слоисто-кучевые, Ns - слоисто-дождевые, Cu - кучевые, Cb - кучево-дождевые. Подробнее классификацию облаков см. в Атласе облаков (PDF).
  • T - Температура воздуха - температура, измеренная на высоте 2 м над землей.
  • Td - Температура точки росы - температура, при понижении до которой содержащийся в воздухе водяной пар достигнет насыщения.
  • f - Относительная влажность воздуха - влажноcть воздуха, измеренная на высоте 2 м над землей.
  • Te - Эффективная температура - температура, которую ощущает одетый по сезону человек в тени. Характеристика душности погоды. При расчете учитывается влияние влажности воздуха и скорости ветра на теплоощущения человека.
  • Tes - Эффективная температура на солнце - температура, которую ощущает человек, с поправкой на солнечный нагрев. Характеристика знойности погоды. Зависит от высоты солнца над горизонтом, облачности и скорости ветра. Ночью, в пасмурную погоду, а также при ветре 12 м/с и более поправка равна нулю.
  • P - Атмосферное давление - приведенное к уровню моря атмосферное давление.
  • Po - Атмосферное давление - измеренное на уровне метеостанции атмосферное давление.
  • Tmin - Минимальная температура - минимум температуры воздуха на высоте 2 м над землей.
  • Tmax - Максимальная температура - максимум температуры воздуха на высоте 2 м над землей.
  • R - Количество осадков - Количество выпавших осадков за период времени, мм. При наведении курсора мыши на число - период времени, за который выпало указанное количество осадков.
  • R24 - Количество осадков - Количество выпавших осадков за 24 часа, мм.
  • S - Снежный покров - Высота снежного покрова, см. При наведении курсора мыши на число - состояние снежного покрова и степень покрытия местности в баллах.